OpenBCM V2.0.2 (Linux)

Packet Radio Mailbox

IZ3LSV

[San Dona' di P. JN]

 Login: GUEST





  
CX2SA  > KEP      21.03.20 01:17l 86 Lines 3609 Bytes #999 (0) @ ARL
BID : ARLK023
Read: GUEST
Subj: ARLK023 Keplerian data
Path: IZ3LSV<IQ2LB<IK1NHL<CX2SA
Sent: 200320/2248Z @:CX2SA.SAL.URY.SOAM #:27014 [Salto] FBB7.00e $:ARLK023
From: CX2SA@CX2SA.SAL.URY.SOAM
To  : KEP@ARL


ZCZC SK23
QST de W1AW
Keplerian Bulletin 23  ARLK023
From ARRL Headquarters
Newington, CT  March 20, 2020
To all radio amateurs

SB KEP ARL ARLK023
ARLK023 Keplerian data

Special thanks to AMSAT-NA (AMSAT.ORG) for the following Keplerian
data.

Decode 2-line elsets with the following key:
1 AAAAAU 00  0  0 BBBBB.BBBBBBBB  .CCCCCCCC  00000-0  00000-0 0  DDDZ
2 AAAAA EEE.EEEE FFF.FFFF GGGGGGG HHH.HHHH III.IIII JJ.JJJJJJJJKKKKKZ
KEY: A-CATALOGNUM B-EPOCHTIME C-DECAY D-ELSETNUM E-INCLINATION F-RAAN
G-ECCENTRICITY H-ARGPERIGEE I-MNANOM J-MNMOTION K-ORBITNUM Z-CHECKSUM

0 AO-07
1 7530U 74089B   20080.51208209 -.00000035  00000-0  66161-4 0  9993
2 7530 101.7896  50.7862 0012160 173.7624 300.3025 12.53642634 75086
0 FO-29
1 24278U 96046B   20080.28673655 -.00000016  00000-0  22898-4 0  9991
2 24278  98.5704 201.8492 0349388 245.7013 110.7269 13.53096682165079
0 ISS
1 25544U 98067A   20080.22596065  .00046382  00000-0  84751-3 0  9996
2 25544  51.6424  68.6333 0004949  35.5369 148.9813 15.48909038218226
0 SO-50
1 27607U 02058C   20080.04541177  .00000002  00000-0  20923-4 0  9998
2 27607  64.5542 287.7276 0059077 200.0679 159.8101 14.75616821927667
0 CO-55
1 27844U 03031E   20080.01533860  .00000051  00000-0  42672-4 0  9999
2 27844  98.6846  89.0901 0009031 319.5254  40.5252 14.22226606867423
0 RS-22
1 27939U 03042A   20080.43539866  .00000126  00000-0  31211-4 0  9994
2 27939  98.0740 216.5142 0011486 275.3582  84.6314 14.66843796880964
0 RS-30
1 32953U 08025A   20080.46248550  .00000037  00000-0  19437-3 0  9998
2 32953  82.5065 333.2633 0018115 248.7092 111.2050 12.43094651536572
0 KKS-1
1 33499U 09002H   20080.00522664  .00000096  00000-0  22084-4 0  9999
2 33499  98.3283 292.1844 0010165  54.7477 305.4681 14.75512829599824
0 AO-71
1 37854U 11061E   20079.67811850  .00001023  00000-0  59394-4 0  9990
2 37854 101.7079 124.6141 0158726 328.8107  30.3759 15.07076908458402
0 AO-73
1 39444U 13066AE  20079.57047258  .00000210  00000-0  32109-4 0  9998
2 39444  97.5596  84.7783 0057340 203.8869 155.9683 14.82080267340641
0 UKUBE 1
1 40074U 14037F   20080.44626805  .00000270  00000-0  39480-4 0  9992
2 40074  98.4536 263.4827 0005457  54.2066 305.9652 14.84213903308554
0 XW-2A
1 40903U 15049E   20080.40234174  .00001671  00000-0  40134-4 0  9991
2 40903  97.3004 129.2496 0011913 220.3984 262.9789 15.42752219252748
0 XW-2F
1 40910U 15049M   20080.44038723  .00000769  00000-0  41386-4 0  9992
2 40910  97.4690  85.2438 0013290 316.0336 182.5805 15.17770693248838
0 XW-2B
1 40911U 15049N   20080.46970479  .00000806  00000-0  45215-4 0  9995
2 40911  97.4764  83.5247 0013093 327.5910 186.0400 15.16117878248688
0 IO-86
1 40931U 15052B   20077.49197252  .00000678  00000-0  52654-5 0  9993
2 40931   5.9961 271.2559 0013249  55.3737 304.7768 14.76628550241645
0 CAS-4B
1 42759U 17034B   20080.44210975  .00000080  00000-0  18360-4 0  9994
2 42759  43.0177 156.0880 0010913 197.0997 274.1579 15.09765702152516
0 CAS-4A
1 42761U 17034D   20080.47150463  .00000168  00000-0  23665-4 0  9996
2 42761  43.0187 155.2846 0011469 198.3031 350.8319 15.09844570152518
0 AO-91
1 43017U 17073E   20080.48464685  .00000876  00000-0  73744-4 0  9998
2 43017  97.7259 356.1410 0256906 340.5550  18.5996 14.78845811126011
0 AO-92
1 43137U 18004AC  20079.73080504  .00000945  00000-0  42011-4 0  9996
2 43137  97.4539 151.4732 0009600  21.3324 338.8312 15.23944454121373

Keplerian bulletins are transmitted twice weekly from W1AW.  The
next scheduled transmission of these data will be Tuesday, March 24,
2020, at 2230z on Baudot and BPSK31.
NNNN


Read previous mail | Read next mail


 03.05.2026 09:04:02lGo back Go up